Regional Weather Roundup
Issued by NWS Upton, NY

Current Version | Previous Version | Text Only | Print | Product List | Glossary On
Versions: 1 2 3 4 5 6 7 8 9 10 11 12 13 14 15 16 17 18 19 20 21 22 23 24 25 26 27
000 ASUS41 KOKX 261108 RWROKX REGIONAL WEATHER ROUNDUP NATIONAL WEATHER SERVICE NEW YORK NY 700 AM EDT SUN MAR 26 2017 NOTE: "FAIR" INDICATES FEW OR NO CLOUDS BELOW 12,000 FEET WITH NO SIGNIFICANT WEATHER AND/OR OBSTRUCTIONS TO VISIBILITY. NYZ071-072-176-178-NJZ106-104-261200- NEW YORK CITY METRO AREA CITY SKY/WX TMP DP RH WIND PRES REMARKS Central Park CLOUDY 38 31 76 NE13G23 30.44S WCI 30 Wall St Helipt CLOUDY 39 33 79 NE18 30.43S WCI 30 LaGuardia APRT CLOUDY 40 32 73 NE20 30.43R WCI 30 Kennedy INTL CLOUDY 39 35 86 NE12 30.43R WCI 32 Breezy Point N/A 37 N/A N/A NE12G17 N/A WCI 30 Newark/Liberty CLOUDY 40 33 76 NE12 30.43R WCI 33 Teterboro CLOUDY 40 32 73 NE10 30.42S WCI 33 $$ NYZ177-179-078>081-261200- LONG ISLAND NEW YORK CITY SKY/WX TMP DP RH WIND PRES REMARKS Jones Beach N/A 37 N/A N/A NE15 N/A WCI 28 Matinecock PT N/A 37 N/A N/A E23 N/A WCI 26 Farmingdale MIX PCPN 37 34 89 NE9 30.42S WCI 30 MacArthur/ISP LGT RAIN 37 34 89 NE13 30.43R WCI 29 Shirley CLOUDY 37 33 85 VRB6 30.44S WCI 32 Westhampton CLOUDY 37 32 82 NE9 30.45F WCI 30 East Hampton CLOUDY 36 32 87 NE7 30.45S WCI 30 Montauk N/A 38 34 85 NE9 30.47R WCI 31 $$ NYZ052-065-067-261200- HUDSON VALLEY CITY SKY/WX TMP DP RH WIND PRES REMARKS White Plains LGT RAIN 36 31 82 NE7 30.42S WCI 30 Newburgh CLOUDY 34 32 93 CALM 30.46R Montgomery CLOUDY 34 28 79 NE9 30.44R WCI 27 Poughkeepsie CLOUDY 33 29 85 N6 30.46R WCI 28 Albany MOCLDY 28 18 66 CALM 30.49R $$ NJZ001-105-106-008-010-013-015-019>022-104-261200- NEW JERSEY CITY SKY/WX TMP DP RH WIND PRES REMARKS Newark/Liberty CLOUDY 40 33 76 NE12 30.43R WCI 33 Teterboro CLOUDY 40 32 73 NE10 30.42S WCI 33 Caldwell CLOUDY 39 32 76 NE10 30.43R WCI 32 Somerville CLOUDY 40 33 76 NE8 30.39R WCI 34 Linden CLOUDY 40 33 76 E14 30.43R WCI 32 Sussex CLOUDY 34 31 88 NE9 30.41S WCI 27 Andover N/A 34 33 96 VRB3 30.40R Trenton CLOUDY 40 37 89 E8 30.39R WCI 34 Millville CLOUDY 44 39 82 E14 30.34R Atlantic City CLOUDY 43 38 82 E16G24 30.36R Wrightstown CLOUDY 40 36 83 E10 30.36S WCI 34 Toms River CLOUDY 40 37 89 E9 30.40R WCI 34 Belmar CLOUDY 40 34 79 E14G23 30.42R WCI 32 $$ PAZ047>061-062-071-261200- EASTERN PENNSYLVANIA CITY SKY/WX TMP DP RH WIND PRES REMARKS Philadelphia CLOUDY 43 37 79 E14 30.38R Allentown CLOUDY 39 34 82 E10 30.39R WCI 32 Scranton CLOUDY 37 33 85 NE6 30.34R WCI 32 $$ CTZ002-004>006-009-010-012-RIZ004-006-007-MAZ004-011-015-261200- SOUTHERN NEW ENGLAND IN CT CITY SKY/WX TMP DP RH WIND PRES REMARKS Bradley INTL CLOUDY 30 28 92 NE8 30.49R WCI 22 Hartford CLOUDY 31 29 92 NE7 30.50R WCI 24 Danbury CLOUDY 35 29 78 NE6 30.45R WCI 30 Wtrbury/Oxford MOCLDY 34 25 69 E12 30.44S WCI 25 Bridgeport CLOUDY 38 30 73 NE12 30.46R WCI 30 Meriden CLOUDY 34 28 79 N8 30.48R WCI 27 New Haven CLOUDY 36 30 79 N9 30.46S WCI 29 Chester NOT AVBL Groton CLOUDY 33 29 85 N8 30.47R WCI 26 Wilimantic CLOUDY 29 26 89 CALM 30.49R IN RI CITY SKY/WX TMP DP RH WIND PRES REMARKS Providence PTCLDY 31 25 78 N7 30.50R WCI 24 Block Island MOCLDY 36 34 92 NE9 30.47R WCI 29 Westerly CLEAR 32 29 88 NE5 30.48R WCI 27 IN MA CITY SKY/WX TMP DP RH WIND PRES REMARKS Boston PTCLDY 30 24 78 N9 30.52R WCI 22 Worcester CLOUDY 27 20 75 NE7 30.47R WCI 19 Westfield PTCLDY 29 26 89 N8 30.49R WCI 21 Provincetown CLEAR 37 26 64 NE14 30.50R WCI 28 Nantucket CLEAR 31 29 92 N7 30.46R WCI 24 $$ ANZ330-335-338-340-345-350-353-355-261200- COASTAL MARINE OBSERVATIONS STATION/POSITION TIME SKY/WX TEMP WIND PRES VSBY WAVE AIR SEA DIR/SP/G HT/PER (UTC) (F) (DEG/KT/KT) (MB) (MI) (FT/S) NY HARB ENTRANCE 0950 41 42 60/ 19/ 23 1028.8 4/ 5 20 S FIRE ISLAND 1050 40 40 60/ 17/ 21 1029.0 5/ 5 GREAT SOUTH BAY NOT AVBL 23 SSW MONTAUK P 0950 39 43 1030.6 3/ 4 15 E BARNEGAT LI 1030 43 N/A 6/ 6 HUDSON CANYON 0950 42 45 70/ 21/ 25 1027.8 5/ 5 KINGS POINT 1048 38 39 1030.2 EXECUTION ROCKS NOT AVBL CENTRAL LI SOUND 1030 37 60/ 14/ 16 N/A 1/ 2 EASTERN LI SOUND NOT AVBL ROBBINS REEF 1048 39 50/ 14/ 18 1030.3 $$ >>>>>>>>>>>>>>>>>>>>>>>>>>>> KEY <<<<<<<<<<<<<<<<<<<<<<<<<<< > < > SKY/WX - Sky Condition/Present Weather < > TMP - Temperature in Fahrenheit < > DP - Dew Point in Fahrenheit < > RH - Relative Humidity in Percent < > WIND - Direction (from) and Speed in MPH < > PRES - Mean Sea Level Pressure (inches of Hg) < > WCI - Wind Chill Index < > VSB - VISIBILITY IN MILES < > HX - HEAT INDEX < > TC - TEMPERATURE IN CELSIUS < > VRB - VARIABLE WIND DIRECTION < > < >>>>>>>>>>>>>>>>>>>>>>>>>>>> KEY <<<<<<<<<<<<<<<<<<<<<<<<<<<

USA.gov is the U.S. government's official web portal to all federal, state and local government web resources and services.